Temp
15 16 15 16 17 17 18 20 19 19 19 20 20 20 20 19 19 19 18 18 18 17 17 17 17 17 17 16 16 15 14 13 13 12 13 13 13 12 11 11 11 11 11
13 14 14 15 15 16 17 17 18 17 18 19 19 19 18 19 19 19 19 18 17 17 17 17 17 17 16 16 16 15 14 13 13 12 13 13 13 12 11 11 11 10 10
11 11 12 13 14 14 15 16 17 18 18 18 18 18 18 16 18 19 18 18 17 17 17 17 17 17 16 16 16 15 14 14 13 12 13 13 11 11 11 11 10 10 10
10 10 10 11 11 11 11 13 14 16 17 17 17 17 18 16 16 15 16 17 17 17 17 17 17 17 16 16 15 15 14 14 14 13 13 13 11 11 10 10 10 10 10
9 10 10 10 10 11 10 10 12 13 14 15 17 16 17 15 16 13 14 15 16 17 17 16 16 16 16 15 15 15 14 14 13 12 12 12 13 11 11 11 10 10 10
9 9 9 9 9 10 10 10 9 10 11 12 13 13 14 15 15 15 14 13 15 10 16 16 16 16 15 15 14 13 13 13 13 12 12 12 12 13 12 10 10 10 10
8 8 7 7 8 9 9 10 10 10 10 10 11 11 11 11 11 12 11 15 14 14 15 15 16 15 15 14 14 13 13 13 12 12 12 12 12 12 12 11 11 11 10
6 7 7 7 7 7 8 9 9 10 10 10 10 10 10 12 11 11 10 12 12 14 14 15 15 15 14 14 14 13 13 13 12 12 12 12 12 12 12 11 11 10 10
5 5 6 6 6 6 7 7 8 8 8 9 10 9 10 10 10 9 10 11 12 13 14 14 14 14 14 14 13 13 12 12 12 12 12 12 12 11 11 11 11 11 10
4 4 4 4 5 5 6 6 7 7 7 8 9 9 9 9 10 10 9 10 11 12 13 13 13 13 13 13 12 12 12 12 12 12 11 11 11 11 11 11 10 10 10
3 3 3 3 4 4 4 5 6 7 7 6 8 8 9 9 8 8 8 11 10 11 11 12 12 12 12 12 12 12 12 12 12 12 11 11 11 11 11 11 11 10 10
1 1 1 1 1 2 3 3 4 5 6 7 7 7 7 7 8 8 8 9 8 9 10 10 11 11 11 12 11 11 12 12 11 11 10 10 10 11 11 11 11 10 9
0 0 1 1 1 1 1 2 3 3 4 5 5 7 7 7 7 6 6 7 8 8 9 10 10 9 9 10 11 11 11 11 11 10 10 10 10 10 11 11 11 10 10
-1 -1 -1 -0 -0 1 1 1 2 3 3 4 4 5 5 7 8 8 8 7 7 8 8 9 9 9 9 10 10 10 10 11 11 10 10 10 10 10 10 10 11 10 10
-2 -2 -1 -1 -1 -0 0 1 1 1 2 3 3 4 4 5 5 7 8 8 8 8 8 8 9 9 9 9 10 10 9 10 10 10 10 10 10 9 9 10 10 10 10
-3 -2 -2 -2 -1 -1 -1 -0 0 1 1 1 1 2 3 3 4 4 5 7 8 8 8 8 7 7 8 8 9 10 9 9 8 9 9 9 10 10 9 8 10 10 10
-3 -3 -3 -3 -2 -2 -1 -1 -1 -1 -0 -0 0 1 1 1 1 1 2 3 4 5 5 5 5 6 5 6 6 7 8 8 8 8 9 9 9 10 9 9 8 9 9
-4 -4 -4 -3 -3 -3 -2 -2 -2 -1 -1 -0 -0 -0 1 0 0 0 0 1 1 1 2 3 4 4 5 5 6 6 6 6 7 7 8 9 9 9 10 9 9 8 9
-4 -4 -4 -4 -4 -3 -3 -3 -2 -2 -2 -1 -1 -0 -0 0 0 0 -0 0 1 1 2 2 3 3 3 4 5 5 5 5 6 7 7 8 9 9 10 10 10 9 8
-4 -4 -4 -4 -4 -4 -4 -4 -3 -3 -2 -1 -1 -1 -1 -1 -1 -0 -0 -0 0 1 1 1 2 2 2 3 3 4 5 5 5 5 6 7 8 9 9 10 9 9 8
-4 -4 -4 -4 -4 -4 -4 -4 -4 -3 -3 -3 -2 -2 -1 -1 -1 -0 -0 0 -0 0 1 1 1 1 1 1 2 3 3 4 5 5 6 6 7 8 9 9 9 8 7
-4 -3 -3 -3 -3 -3 -3 -3 -3 -3 -3 -3 -2 -2 -2 -2 -1 -1 -1 -0 0 0 0 1 1 1 1 1 2 2 3 4 4 5 5 6 6 7 8 9 9 8 7
-3 -3 -3 -3 -2 -2 -2 -1 -1 -1 -1 -1 -1 -1 -2 -1 -1 -1 -1 -0 -0 0 1 1 0 1 1 2 3 3 3 3 4 5 5 5 6 6 7 8 9 7 7
-3 -3 -3 -2 -2 -2 -2 -2 -1 -0 -1 -1 -1 -1 -1 -1 -0 0 1 0 0 0 0 0 1 1 1 2 2 2 3 3 4 4 5 5 6 6 6 8 8 7 7
-3 -3 -3 -3 -2 -2 -1 -1 -0 -1 -1 -0 -0 -0 -0 0 0 1 1 1 1 0 0 1 1 1 1 2 2 2 2 3 3 4 5 5 6 6 7 7 8 7 7
-3 -3 -3 -3 -2 -2 -1 -1 -1 -0 -0 -0 -0 -0 0 1 2 2 1 1 1 1 2 1 1 2 2 3 3 3 3 4 4 4 5 5 6 6 7 7 7 8 8
Height
1482 1480 1480 1479 1480 1483 1485 1489 1493 1498 1503 1507 1510 1513 1516 1518 1521 1523 1525 1527 1530 1532 1534 1536 1537 1539 1540 1541 1542 1542 1542 1543 1544 1543 1542 1541 1539 1538 1537 1537 1537 1537 1537
1482 1480 1478 1477 1477 1477 1478 1480 1484 1488 1493 1497 1501 1503 1508 1511 1514 1516 1518 1521 1523 1526 1529 1530 1532 1534 1536 1537 1538 1539 1539 1540 1541 1541 1540 1539 1537 1537 1537 1537 1536 1536 1536
1484 1481 1479 1476 1474 1472 1473 1474 1476 1481 1484 1487 1490 1493 1495 1500 1504 1507 1510 1513 1516 1519 1522 1524 1526 1528 1531 1533 1534 1535 1536 1537 1537 1539 1537 1537 1536 1535 1535 1535 1535 1535 1534
1483 1481 1479 1477 1475 1472 1471 1470 1472 1474 1476 1477 1479 1483 1488 1491 1492 1497 1501 1503 1505 1510 1513 1519 1521 1523 1524 1528 1530 1532 1533 1535 1535 1536 1535 1534 1533 1533 1533 1533 1533 1533 1533
1480 1479 1477 1475 1474 1473 1472 1467 1466 1468 1470 1470 1470 1474 1477 1484 1483 1480 1486 1492 1497 1496 1505 1507 1514 1516 1519 1522 1525 1528 1529 1532 1533 1534 1533 1531 1531 1530 1531 1532 1531 1531 1530
1477 1475 1474 1472 1470 1469 1468 1467 1469 1464 1466 1466 1465 1466 1470 1474 1476 1473 1480 1485 1485 1481 1492 1500 1506 1510 1513 1516 1520 1524 1526 1527 1529 1530 1530 1530 1528 1527 1528 1529 1528 1528 1528
1474 1472 1470 1468 1466 1464 1463 1463 1462 1461 1463 1464 1460 1462 1463 1461 1467 1467 1470 1473 1480 1480 1486 1493 1497 1502 1505 1511 1515 1519 1521 1522 1524 1525 1525 1525 1525 1524 1524 1525 1525 1525 1525
1468 1467 1465 1464 1462 1461 1458 1457 1456 1455 1454 1454 1453 1455 1458 1455 1458 1459 1462 1464 1471 1474 1480 1486 1491 1495 1499 1504 1510 1513 1516 1517 1518 1520 1520 1521 1521 1521 1521 1522 1523 1523 1523
1461 1459 1458 1456 1454 1454 1453 1451 1449 1448 1447 1446 1446 1447 1449 1453 1449 1453 1458 1458 1461 1468 1473 1477 1485 1489 1494 1500 1503 1507 1510 1512 1512 1514 1515 1516 1517 1517 1517 1518 1519 1519 1520
1454 1451 1448 1447 1445 1444 1444 1444 1442 1441 1439 1439 1438 1439 1440 1443 1444 1448 1449 1449 1455 1460 1466 1472 1477 1484 1487 1494 1497 1501 1503 1505 1506 1508 1510 1510 1512 1512 1513 1514 1515 1516 1516
1444 1440 1437 1436 1434 1433 1432 1433 1433 1433 1433 1432 1432 1432 1433 1434 1436 1439 1445 1442 1443 1455 1461 1464 1471 1476 1482 1486 1491 1493 1497 1500 1501 1502 1504 1506 1506 1508 1508 1509 1511 1512 1513
1431 1428 1426 1425 1423 1423 1423 1422 1423 1424 1424 1425 1425 1426 1427 1428 1430 1433 1436 1439 1449 1452 1451 1458 1463 1468 1475 1478 1481 1485 1490 1492 1494 1495 1499 1502 1503 1502 1504 1504 1506 1508 1511
1418 1416 1415 1414 1414 1413 1412 1412 1413 1414 1415 1416 1417 1417 1419 1424 1426 1429 1431 1434 1438 1443 1446 1449 1455 1459 1464 1469 1471 1475 1479 1483 1486 1488 1490 1496 1499 1500 1499 1500 1501 1503 1506
1405 1403 1402 1401 1401 1401 1402 1402 1403 1404 1405 1406 1408 1409 1411 1413 1416 1421 1424 1427 1432 1435 1439 1443 1446 1451 1457 1458 1463 1466 1468 1475 1476 1480 1485 1490 1493 1494 1495 1496 1497 1499 1502
1393 1391 1390 1389 1388 1388 1388 1389 1391 1392 1394 1396 1398 1401 1403 1404 1407 1410 1415 1419 1424 1427 1432 1434 1437 1440 1443 1447 1452 1458 1460 1465 1468 1472 1477 1483 1486 1488 1491 1491 1491 1495 1497
1382 1380 1379 1377 1377 1377 1377 1376 1377 1380 1382 1383 1385 1388 1391 1393 1397 1400 1403 1409 1414 1419 1421 1422 1425 1428 1430 1436 1441 1445 1450 1452 1459 1464 1468 1473 1478 1482 1484 1485 1485 1489 1492
1374 1370 1369 1367 1366 1366 1366 1366 1366 1367 1368 1369 1371 1375 1377 1381 1385 1388 1391 1395 1400 1405 1404 1410 1412 1416 1421 1425 1429 1433 1438 1441 1447 1454 1461 1462 1467 1474 1477 1479 1480 1482 1485
1364 1361 1359 1357 1356 1356 1356 1356 1356 1356 1356 1357 1359 1362 1365 1368 1372 1376 1380 1385 1388 1389 1393 1396 1400 1404 1409 1413 1416 1422 1427 1430 1436 1441 1450 1452 1456 1462 1468 1471 1474 1478 1477
1354 1350 1348 1346 1345 1345 1345 1345 1345 1345 1346 1346 1349 1350 1352 1356 1359 1363 1367 1369 1372 1375 1378 1383 1388 1393 1396 1403 1408 1413 1417 1421 1426 1430 1436 1441 1445 1451 1457 1463 1466 1470 1472
1345 1341 1339 1336 1334 1333 1333 1333 1333 1334 1334 1335 1336 1338 1342 1345 1347 1349 1352 1355 1358 1362 1367 1371 1376 1380 1385 1391 1397 1402 1407 1412 1415 1418 1424 1430 1436 1441 1446 1454 1458 1461 1464
1338 1333 1330 1327 1325 1323 1323 1322 1322 1322 1322 1323 1324 1328 1331 1333 1335 1337 1340 1342 1345 1349 1353 1358 1364 1369 1373 1379 1385 1391 1396 1401 1405 1407 1412 1420 1425 1430 1436 1443 1449 1453 1455
1333 1328 1324 1321 1318 1315 1314 1313 1312 1312 1312 1312 1313 1315 1318 1321 1323 1325 1328 1330 1333 1337 1341 1346 1350 1355 1361 1366 1372 1377 1384 1388 1393 1397 1401 1409 1415 1421 1427 1434 1439 1444 1447
1330 1325 1320 1316 1313 1310 1307 1305 1303 1302 1301 1302 1303 1304 1306 1307 1310 1312 1314 1318 1322 1325 1329 1333 1338 1342 1349 1355 1361 1366 1370 1375 1381 1386 1390 1398 1404 1412 1418 1423 1430 1433 1439
1329 1324 1318 1314 1310 1306 1303 1300 1297 1293 1293 1293 1293 1294 1295 1297 1299 1301 1303 1307 1311 1314 1318 1321 1325 1331 1337 1342 1347 1352 1358 1365 1371 1375 1382 1388 1395 1402 1407 1415 1421 1425 1431
1330 1324 1318 1313 1308 1304 1299 1296 1293 1289 1288 1287 1286 1287 1287 1288 1289 1291 1293 1296 1299 1303 1307 1310 1314 1318 1323 1329 1335 1341 1348 1354 1360 1366 1371 1381 1386 1393 1399 1406 1413 1420 1424
1332 1325 1319 1313 1308 1303 1298 1294 1290 1287 1284 1282 1281 1280 1280 1279 1280 1281 1284 1286 1289 1292 1296 1300 1304 1308 1313 1319 1325 1332 1338 1345 1352 1358 1365 1373 1380 1386 1392 1399 1406 1411 1417
Wind_Speed
15 14 16 14 24 34 37 40 38 37 38 39 38 36 35 35 34 33 31 28 24 22 19 16 14 11 10 9 8 7 8 6 4 5 8 8 7 6 4 4 6 9 12
17 15 15 14 15 17 27 33 34 35 37 40 42 42 39 42 41 40 38 35 32 28 24 21 19 17 14 12 10 10 9 7 5 3 7 8 7 6 4 4 7 8 10
17 17 14 13 12 11 15 22 32 35 38 37 35 39 40 40 44 45 45 42 38 33 29 26 22 21 18 16 13 12 10 10 7 6 8 9 8 7 6 6 7 9 9
15 16 16 12 10 9 9 11 17 26 36 36 38 39 48 44 46 46 43 48 46 37 31 28 25 23 20 18 16 14 11 8 6 5 8 10 10 7 8 10 9 8 10
18 16 17 18 18 14 11 9 13 18 28 34 37 40 46 51 52 44 45 45 52 41 38 31 27 24 21 19 19 17 13 10 7 4 3 6 11 12 11 9 10 10 11
21 20 19 18 19 18 21 17 13 7 14 22 28 31 41 51 54 53 41 51 49 51 38 30 29 26 23 22 21 17 14 12 10 7 5 6 11 13 13 12 11 13 11
24 22 19 18 20 22 22 23 26 26 25 25 20 20 17 28 33 36 33 39 41 41 33 31 30 28 26 26 24 21 18 16 14 13 13 11 12 15 14 12 14 13 11
26 27 24 20 20 20 22 23 23 23 25 25 26 28 31 19 16 21 19 29 33 34 33 32 30 28 28 28 26 23 20 18 16 15 14 15 15 16 15 13 13 14 14
23 23 26 26 25 23 22 20 22 22 22 22 24 26 34 28 14 5 21 22 28 31 33 31 30 28 27 28 27 24 21 19 17 17 16 16 16 15 16 16 15 15 15
25 27 28 30 32 30 27 25 28 25 21 23 22 25 26 30 35 42 22 22 30 30 31 33 31 30 28 27 27 26 25 22 18 17 18 17 16 16 15 15 17 16 15
29 31 32 33 32 32 30 29 29 29 27 22 21 19 22 26 28 33 30 27 15 28 36 34 35 34 32 31 30 30 29 22 19 17 18 18 18 17 14 15 16 18 17
30 30 29 27 26 26 26 26 26 28 28 28 26 25 15 15 20 27 31 29 30 26 26 37 41 36 35 34 32 31 29 26 23 20 17 17 15 17 14 13 13 13 12
29 29 26 26 26 24 25 28 28 26 26 25 23 27 29 29 22 21 20 25 28 28 27 24 25 25 25 29 32 33 32 31 27 22 20 19 17 14 16 12 12 13 15
37 36 35 32 30 30 27 24 28 32 31 30 28 27 25 31 32 34 31 27 25 25 25 27 26 26 30 28 30 28 29 31 30 26 22 21 17 18 19 15 12 17 17
35 34 32 33 32 31 32 32 31 29 31 33 33 31 29 29 30 38 39 37 34 32 32 33 35 36 37 39 39 39 33 33 33 32 26 24 22 20 19 20 15 16 19
30 31 31 32 30 30 30 31 32 33 34 35 34 33 29 32 32 32 38 42 42 42 43 42 34 36 41 40 47 47 40 40 34 33 31 29 27 25 23 20 21 20 22
27 29 30 30 28 29 30 31 32 34 34 33 32 33 34 35 32 30 32 34 34 34 42 35 34 33 31 33 33 33 34 31 35 34 35 31 29 29 28 23 18 23 24
29 28 28 29 29 30 32 32 31 31 31 32 31 31 31 33 34 34 33 29 31 34 35 33 32 30 30 28 28 30 28 27 30 30 35 34 31 31 30 28 24 22 25
28 28 28 27 27 28 29 31 31 33 35 35 33 32 31 30 30 31 31 39 41 40 37 36 33 31 33 31 29 28 27 28 28 28 30 33 34 33 33 31 27 26 26
26 25 24 25 26 27 26 27 30 33 33 31 31 32 30 29 31 33 36 38 43 46 46 44 40 40 39 38 37 29 27 27 28 29 29 31 33 34 34 33 30 28 35
25 24 22 21 23 24 25 26 27 27 29 31 34 34 36 37 34 34 35 36 37 43 45 48 44 41 40 43 41 34 31 32 30 30 33 33 32 33 32 32 30 29 32
21 20 18 18 18 19 20 22 24 27 29 31 31 29 28 31 34 36 38 36 37 37 39 43 45 46 44 39 35 38 36 32 32 32 34 31 32 31 31 31 31 34 36
20 19 17 15 14 14 15 15 20 24 27 28 28 28 27 29 31 32 33 35 37 37 36 37 37 40 38 37 37 35 33 35 34 37 32 32 34 32 32 32 33 36 37
23 21 19 16 14 13 13 14 17 16 18 21 24 25 26 27 28 29 30 32 36 41 41 39 38 35 38 38 38 40 37 33 31 36 38 31 33 36 35 33 34 35 36
27 25 23 21 19 18 16 14 12 10 12 13 15 18 20 22 25 27 28 30 31 32 33 35 35 36 38 40 40 35 33 33 32 31 40 41 33 36 39 37 34 31 30
32 30 27 24 22 20 18 16 15 13 11 12 13 15 16 18 21 23 24 25 28 29 31 33 35 33 32 34 36 33 32 33 33 33 37 39 37 37 40 39 37 36 33
Wind_Direction
354 357 356 319 269 257 251 248 248 239 237 233 237 235 231 227 224 220 218 217 220 224 228 231 234 236 237 241 245 247 248 241 250 285 310 318 323 335 335 299 300 290 293
346 342 336 332 336 291 256 253 250 243 242 241 242 245 240 237 234 228 224 222 223 225 228 230 234 234 230 233 233 237 238 245 233 253 303 312 323 318 302 305 290 297 300
331 338 340 331 320 316 302 264 245 245 241 243 242 245 247 244 242 239 232 228 224 225 229 231 233 233 231 229 226 227 230 241 251 255 277 291 306 320 304 283 270 281 289
339 335 318 322 323 322 316 284 272 245 244 240 243 246 236 257 256 253 243 235 226 225 226 231 231 233 230 227 219 214 211 220 236 253 278 280 285 289 307 277 273 278 282
323 321 319 319 296 293 286 298 277 269 258 248 236 241 239 234 262 254 246 255 237 227 221 223 226 227 226 224 216 207 207 218 237 237 270 300 298 286 280 284 280 273 271
312 315 308 305 301 300 283 278 270 269 267 268 259 241 234 237 248 255 245 248 250 256 216 219 223 220 216 215 212 215 225 235 246 250 266 274 302 299 283 277 270 267 264
300 304 304 307 300 295 292 289 280 274 268 261 260 260 252 236 242 251 257 244 238 235 220 224 217 216 215 217 219 222 228 241 252 267 284 296 306 302 279 269 272 267 275
292 289 293 295 295 297 296 290 282 277 272 267 264 258 253 256 251 250 255 240 226 218 212 215 217 219 217 221 224 228 232 239 252 265 277 291 305 299 283 261 266 263 266
294 293 288 286 286 285 285 283 286 281 276 273 262 257 245 244 238 274 242 228 217 212 207 207 212 215 220 224 225 228 230 242 251 259 266 283 296 297 281 264 252 257 255
286 288 288 286 284 279 276 275 276 282 274 274 270 254 252 248 246 255 272 235 214 206 213 207 209 214 218 223 227 231 235 244 254 261 261 271 285 290 277 270 254 253 255
286 288 287 285 278 273 269 265 267 268 272 265 267 252 246 241 236 232 232 227 244 225 221 219 219 216 224 224 228 230 236 249 256 257 256 263 273 281 273 267 265 240 252
284 283 280 276 275 269 261 258 255 256 258 260 251 252 253 238 233 227 229 229 237 243 228 223 222 225 231 231 230 233 241 246 244 243 239 249 250 267 266 264 262 254 243
280 281 275 274 274 269 262 255 252 250 250 250 251 247 244 246 230 223 213 212 217 231 232 231 228 228 228 230 234 236 236 237 237 233 232 242 246 251 255 256 241 222 232
284 281 278 274 272 270 263 257 251 247 248 249 249 248 249 242 238 240 238 234 234 238 241 240 241 239 243 241 243 236 235 236 236 235 234 238 238 241 246 243 247 222 226
285 283 278 274 273 273 267 260 255 249 245 246 248 248 246 247 245 240 237 239 243 250 253 255 251 248 248 250 246 248 243 241 238 238 232 234 234 232 230 240 235 232 231
287 284 278 277 271 266 264 266 263 257 253 254 252 246 246 246 237 239 246 241 242 244 252 251 246 250 249 246 248 245 241 241 240 237 233 233 236 234 227 231 236 231 231
291 284 280 274 273 273 267 263 261 263 265 261 253 247 247 247 248 253 244 245 243 235 236 236 237 235 237 234 235 237 233 233 234 235 236 232 231 232 228 224 227 236 227
294 288 281 275 272 267 261 260 262 259 259 260 259 255 250 248 247 247 245 234 234 231 229 231 233 233 233 234 230 231 230 225 227 227 231 228 224 225 227 224 226 226 225
297 290 285 280 271 264 262 262 261 259 256 258 259 256 254 251 245 244 244 235 234 233 232 232 232 232 232 227 227 226 228 226 224 223 226 226 222 220 224 227 224 227 222
310 302 293 284 277 273 268 261 255 252 252 254 251 249 250 249 249 242 236 235 232 232 233 235 236 239 232 230 227 219 223 225 226 223 221 224 221 218 219 224 224 222 223
321 317 311 299 287 279 271 265 261 257 255 253 252 250 248 248 246 240 239 240 234 233 232 234 235 235 236 232 228 224 229 230 230 224 219 220 216 216 216 220 224 218 222
331 328 323 314 305 294 284 276 268 262 259 259 259 257 251 242 244 244 244 244 240 238 234 236 237 234 231 231 225 227 226 227 225 218 221 215 218 214 212 215 217 215 213
349 347 342 334 328 320 311 301 291 275 268 265 264 261 256 251 246 241 237 233 238 241 238 237 236 234 228 229 227 224 224 225 226 221 220 222 212 214 211 209 208 209 214
4 360 354 350 341 332 322 310 320 298 276 269 268 264 259 256 251 246 243 239 233 235 240 241 233 227 224 224 226 230 230 221 217 217 210 216 221 213 211 205 202 206 211
15 11 8 3 359 354 346 338 323 330 302 290 282 273 268 261 255 251 247 244 240 236 233 238 239 236 233 232 234 228 216 215 214 214 216 218 218 207 201 201 198 197 208
23 20 16 12 7 0 352 343 335 329 309 284 276 275 280 270 261 257 252 246 241 238 234 232 235 236 229 225 225 219 219 216 215 216 216 218 213 209 202 201 205 208 213